Orlando, FL

5:58 AM EST on February 07, 2016 (GMT -0500)
WFTV, Channel 9 | | Change Station
CLOSE
Current Station
Personal Weather Station
Location: Orlando, FL
Elevation: 92 ft
Nearby Weather Stations
Active Advisory: Lake Wind Advisory

Elev 92 ft 28.54 °N, 81.37 °W | Updated 17 seconds ago

Overcast
Overcast
50.7 °F
Feels Like 50.7 °F
N
0.0
Wind Variable Wind from NNW
Gusts 0.0 mph

Today
High -- | Low -- °F
--% Chance of Precip.
Yesterday
High -- | Low -- °F
Precip. -- in
Pressure 29.97 in
Visibility 10.0 miles
Clouds Overcast 900 ft
Dew Point 48 °F
Humidity 90%
Rainfall 0.00 in
Snow Depth Not available.
7:10 AM 6:09 PM
Waning Crescent, 2% visible
METAR KORL 071053Z AUTO 33013G18KT 10SM OVC009 08/05 A2995 RMK AO2 SLP148 T00780050
Pressure 29.97 in
Visibility 10.0 miles
Clouds Overcast 900 ft
Dew Point 48 °F
Humidity 90%
Rainfall 0.00 in
Snow Depth Not available.
7:10 AM 6:09 PM
Waning Crescent, 2% visible
METAR KORL 071053Z AUTO 33013G18KT 10SM OVC009 08/05 A2995 RMK AO2 SLP148 T00780050

10-Day Weather Forecast

Almanac

Astronomy

Feb. 07, 2016 Rise Set
Actual Time
Civil Twilight
Nautical Twilight
Astronomical Twilight
Moon
Length of Visible Light
Length of Day
Tomorrow will be .
, % of the Moon is Illuminated

Today's Extremes

State Highs State Lows

Community

WunderPhotos

Upload Photos

1,891,171 photos uploaded!

WunderBlog® & News

Nearby

Air Quality

  Air Quality AQ Index Pollutant
Not available.

Snow Depth

Station Depth Elevation

Earthquake Activity

City Distance Mag. Time & Date
Minimum magnitude displayed is 2.5.

Coastal Water Temperatures

Place Temperature

Stations

Nearby Weather Stations

Station Location Temp. Windchill Dew Point Humidity Wind Precip. Elev Updated Type
                   

Watches & Warnings

Lake Wind Advisory
Issued: 3:47 AM EST Feb. 7, 2016 – National Weather Service

... Lake Wind Advisory in effect until 6 PM EST this evening...

The National Weather Service in Melbourne has issued a lake Wind
Advisory... which is in effect until 6 PM EST this evening.

* Winds... northwest winds around 20 mph today with gusts up to 30
to 35 mph.

* Impacts... choppy conditions on Open Lakes and other larger
bodies of water will make operation of small boats potentially
hazardous.

Precautionary/preparedness actions...

A lake Wind Advisory indicates that winds will cause rough chop
on area lakes. Small boats will be especially prone to capsizing.



Weitlich